Weather History for Tyler, TX

Change the Weather History Date:

Sunday, October 2, 2011

  Actual Average Record
Temperature  
Mean Temperature 71 °F 71 °F  
Max Temperature 83 °F 82 °F 97 °F (1989)
Min Temperature 58 °F 60 °F 43 °F (1985)
Degree Days  
Heating Degree Days 0 1  
Month to date heating degree days 0 2  
Since 1 July heating degree days 0 7  
Cooling Degree Days 6 7  
Month to date cooling degree days 10 14  
Year to date cooling degree days 3459 2278  
Growing Degree Days 20 (Base 50)    
Moisture  
Dew Point 37 °F    
Average Humidity 31    
Maximum Humidity 46    
Minimum Humidity 16    
Precipitation  
Precipitation 0.00 in 0.14 in 1.92 in (1927)
Month to date precipitation 0.00 0.27  
Year to date precipitation 14.22 32.87  
Snow  
Snow 0.00 in - - ()
Month to date snowfall 0.0  
Since 1 July snowfall 0.0  
Since 1 September snowfall 0.0  
Snow Depth 0.00 in    
Sea Level Pressure  
Sea Level Pressure 30.20 in    
Wind  
Wind Speed 6 mph (East)    
Max Wind Speed 16 mph    
Max Gust Speed 20 mph    
Visibility 10 miles    
Events      
T = Trace of Precipitation, MM = Missing Value Source: NWS Daily Summary

Daily Weather History Graph

Daily Weather History Graph

Search for Another Location

Airport:

Trip Planner

Search our weather history database for the weather conditions in past years. The results will help you decide how hot, cold, wet, or windy it might be!

Date:

Astronomy

Oct. 02, 2011 Rise Set
Actual Time 7:16 AM CDT 7:05 PM CDT
Civil Twilight 6:51 AM CDT 7:29 PM CDT
Nautical Twilight 6:23 AM CDT 7:58 PM CDT
Astronomical Twilight 5:54 AM CDT 8:26 PM CDT
Moon 1:04 PM CDT (10/2) 11:23 PM CDT (10/2)
Length of Visible Light 12h 38m
Length of Day
11h 49m
Waxing Crescent, 35% of the Moon is Illuminated
Oct 2
Waxing Crescent
Oct 3
First Quarter
Oct 11
Full
Oct 19
Last Quarter
Oct 26
New

Hourly Weather History & Observations

Time (CDT) Temp. Dew Point Humidity Pressure Visibility Wind Dir Wind Speed Gust Speed Precip Events Conditions
12:53 AM 66.0 °F 36.0 °F 33% 30.18 in 10.0 mi East 6.9 mph - N/A   Clear
1:53 AM 66.0 °F 37.0 °F 34% 30.18 in 10.0 mi East 9.2 mph - N/A   Clear
2:53 AM 64.0 °F 37.9 °F 38% 30.19 in 10.0 mi ESE 9.2 mph - N/A   Clear
3:53 AM 62.6 °F 39.2 °F 42% 30.20 in 10.0 mi ESE 8.1 mph - N/A   Clear
4:53 AM 60.8 °F 39.2 °F 45% 30.20 in 10.0 mi ESE 6.9 mph - N/A   Clear
5:53 AM 60.1 °F 39.0 °F 46% 30.20 in 10.0 mi ESE 9.2 mph - N/A   Clear
6:53 AM 59.0 °F 37.4 °F 45% 30.24 in 10.0 mi ESE 8.1 mph - N/A   Clear
7:53 AM 59.0 °F 37.9 °F 46% 30.25 in 10.0 mi ESE 8.1 mph - N/A   Clear
8:53 AM 63.0 °F 37.0 °F 38% 30.27 in 10.0 mi ESE 13.8 mph - N/A   Clear
9:53 AM 66.2 °F 37.4 °F 35% 30.29 in 10.0 mi ESE 10.4 mph - N/A   Clear
10:53 AM 69.8 °F 35.6 °F 28% 30.29 in 10.0 mi SE 6.9 mph - N/A   Clear
11:53 AM 73.9 °F 37.0 °F 26% 30.27 in 10.0 mi East 8.1 mph - N/A   Clear
12:53 PM 75.9 °F 37.9 °F 25% 30.24 in 10.0 mi Calm Calm - N/A   Clear
1:53 PM 78.1 °F 37.0 °F 23% 30.21 in 10.0 mi Calm Calm - N/A   Clear
2:53 PM 81.0 °F 35.1 °F 19% 30.17 in 10.0 mi ENE 8.1 mph - N/A   Clear
3:32 PM 80.6 °F 35.6 °F 20% 30.18 in 10.0 mi East 4.6 mph - N/A   Partly Cloudy
3:53 PM 82.9 °F 34.0 °F 17% 30.16 in 10.0 mi Variable 4.6 mph - N/A   Clear
4:53 PM 82.0 °F 32.0 °F 16% 30.15 in 10.0 mi East 4.6 mph - N/A   Clear
5:53 PM 81.0 °F 32.0 °F 17% 30.14 in 10.0 mi ENE 6.9 mph - N/A   Clear
6:53 PM 78.1 °F 34.0 °F 20% 30.15 in 10.0 mi ENE 4.6 mph - N/A   Clear
7:53 PM 73.4 °F 35.6 °F 25% 30.17 in 10.0 mi East 3.5 mph - N/A   Clear
8:53 PM 68.0 °F 39.0 °F 35% 30.17 in 10.0 mi Calm Calm - N/A   Clear
9:53 PM 64.0 °F 37.9 °F 38% 30.17 in 10.0 mi East 4.6 mph - N/A   Clear
10:53 PM 63.0 °F 39.0 °F 41% 30.18 in 10.0 mi East 3.5 mph - N/A   Clear
11:53 PM 60.1 °F 39.9 °F 47% 30.18 in 10.0 mi Calm Calm - N/A   Clear